Weather History for KO54 - March, 2013

Change the Weather History Date:

Friday, March 15, 2013

  Actual Average (KRDD) Record (KRDD)
Temperature  
Mean Temperature 52 °F -  
Max Temperature 68 °F 64 °F 86 °F (2007)
Min Temperature 37 °F 43 °F 32 °F (2002)
Degree Days  
Heating Degree Days 12    
Cooling Degree Days 0    
Growing Degree Days 2 (Base 50)    
Moisture  
Dew Point 37 °F    
Average Humidity 67    
Maximum Humidity 93    
Minimum Humidity 28    
Precipitation  
Precipitation 0.00 in 0.15 in 0.99 in (2003)
Month to date precipitation 2.57  
Year to date precipitation 14.04  
Sea Level Pressure  
Sea Level Pressure 30.16 in    
Wind  
Wind Speed 2 mph (SW)    
Max Wind Speed 13 mph    
Max Gust Speed 20 mph    
Visibility 10 miles    
Events      
T = Trace of Precipitation, MM = Missing Value Source: NWS Daily Summary

Daily Weather History Graph

Daily Weather History Graph

Search for Another Location

Airport or City:

Trip Planner

Search our weather history database for the weather conditions in past years. The results will help you decide how hot, cold, wet, or windy it might be!

Date:

Astronomy

Mar. 15, 2013 Rise Set
Actual Time 7:22 AM PDT 7:18 PM PDT
Civil Twilight 6:55 AM PDT 7:46 PM PDT
Nautical Twilight 6:23 AM PDT 8:18 PM PDT
Astronomical Twilight 5:51 AM PDT 8:50 PM PDT
Moon 9:14 AM PDT (3/15) 11:39 PM PDT (3/15)
Length of Visible Light 12h 50m
Length of Day
11h 56m
Waxing Crescent, 16% of the Moon is Illuminated
Mar 15
Waxing Crescent
Mar 19
First Quarter
Mar 27
Full
Apr 2
Last Quarter
Apr 10
New

Hourly Weather History & Observations

Time (PDT) Temp. Windchill Dew Point Humidity Pressure Visibility Wind Dir Wind Speed Gust Speed Precip Events Conditions
12:15 AM 39.2 °F - 33.8 °F 81% 30.20 in 10.0 mi Calm Calm - N/A   Clear
12:55 AM 37.4 °F - 35.6 °F 93% 30.20 in 10.0 mi Calm Calm - N/A   Clear
1:15 AM 37.4 °F 34.9 °F 33.8 °F 87% 30.20 in 10.0 mi NE 3.5 mph - N/A   Clear
1:35 AM 37.4 °F - 33.8 °F 87% 30.20 in 10.0 mi Calm Calm - N/A   Clear
1:55 AM 37.4 °F - 33.8 °F 87% 30.20 in 10.0 mi Calm Calm - N/A   Clear
2:15 AM 37.4 °F - 32.0 °F 81% 30.20 in 10.0 mi Calm Calm - N/A   Clear
2:35 AM 37.4 °F - 33.8 °F 87% 30.21 in 10.0 mi Calm Calm - N/A   Clear
2:55 AM 37.4 °F - 33.8 °F 87% 30.21 in 10.0 mi Calm Calm - N/A   Clear
3:15 AM 37.4 °F - 35.6 °F 93% 30.20 in 10.0 mi Calm Calm - N/A   Clear
3:35 AM 37.4 °F - 35.6 °F 93% 30.20 in 10.0 mi Calm Calm - N/A   Clear
3:55 AM 37.4 °F - 35.6 °F 93% 30.20 in 10.0 mi Calm Calm - N/A   Clear
4:15 AM 37.4 °F - 35.6 °F 93% 30.19 in 10.0 mi Calm Calm - N/A   Clear
4:35 AM 37.4 °F - 35.6 °F 93% 30.20 in 10.0 mi Calm Calm - N/A   Clear
4:55 AM 37.4 °F - 35.6 °F 93% 30.20 in 10.0 mi Calm Calm - N/A   Clear
5:15 AM 37.4 °F - 35.6 °F 93% 30.20 in 10.0 mi Calm Calm - N/A   Clear
5:35 AM 37.4 °F - 35.6 °F 93% 30.20 in 10.0 mi Calm Calm - N/A   Clear
5:55 AM 37.4 °F - 35.6 °F 93% 30.20 in 10.0 mi Calm Calm - N/A   Clear
6:15 AM 37.4 °F - 35.6 °F 93% 30.20 in 10.0 mi Calm Calm - N/A   Clear
6:35 AM 37.4 °F - 35.6 °F 93% 30.21 in 10.0 mi Calm Calm - N/A   Clear
6:55 AM 37.4 °F - 35.6 °F 93% 30.19 in 10.0 mi Calm Calm - N/A   Clear
7:15 AM 37.4 °F 34.9 °F 35.6 °F 93% 30.20 in 10.0 mi SSW 3.5 mph - N/A   Clear
7:35 AM 37.4 °F - 35.6 °F 93% 30.20 in 10.0 mi Calm Calm - N/A   Clear
8:55 AM 39.2 °F - 35.6 °F 87% 30.21 in 10.0 mi Calm Calm - N/A   Clear
9:15 AM 41.0 °F - 37.4 °F 87% 30.21 in 10.0 mi Calm Calm - N/A   Clear
9:35 AM 42.8 °F - 37.4 °F 81% 30.21 in 10.0 mi Calm Calm - N/A   Clear
9:55 AM 44.6 °F 43.1 °F 39.2 °F 81% 30.21 in 10.0 mi SSW 3.5 mph - N/A   Clear
10:15 AM 46.4 °F - 39.2 °F 76% 30.21 in 10.0 mi Calm Calm - N/A   Clear
10:35 AM 48.2 °F - 39.2 °F 71% 30.21 in 10.0 mi Calm Calm - N/A   Clear
10:55 AM 50.0 °F - 39.2 °F 66% 30.20 in 10.0 mi Calm Calm - N/A   Clear
11:15 AM 50.0 °F - 37.4 °F 62% 30.19 in 10.0 mi Calm Calm - N/A   Clear
11:35 AM 53.6 °F - 39.2 °F 58% 30.19 in 10.0 mi South 3.5 mph - N/A   Clear
11:55 AM 55.4 °F - 37.4 °F 51% 30.18 in 10.0 mi Calm Calm - N/A   Clear
12:15 PM 57.2 °F - 39.2 °F 51% 30.17 in 10.0 mi Calm Calm - N/A   Clear
12:35 PM 59.0 °F - 39.2 °F 48% 30.16 in 10.0 mi South 3.5 mph - N/A   Clear
12:55 PM 60.8 °F - 39.2 °F 45% 30.15 in 10.0 mi Calm Calm - N/A   Clear
1:15 PM 62.6 °F - 39.2 °F 42% 30.14 in 10.0 mi Calm Calm - N/A   Clear
1:35 PM 64.4 °F - 37.4 °F 37% 30.14 in 10.0 mi South 9.2 mph - N/A   Clear
1:55 PM 64.4 °F - 37.4 °F 37% 30.12 in 10.0 mi SSW 4.6 mph - N/A   Clear
2:15 PM 66.2 °F - 37.4 °F 35% 30.11 in 10.0 mi SSW 10.4 mph - N/A   Clear
2:35 PM 66.2 °F - 35.6 °F 32% 30.10 in 10.0 mi SSW 10.4 mph - N/A   Clear
2:55 PM 68.0 °F - 35.6 °F 30% 30.10 in 10.0 mi SW 12.7 mph 17.3 mph N/A   Clear
3:15 PM 68.0 °F - 35.6 °F 30% 30.10 in 10.0 mi WNW 8.1 mph - N/A   Clear
3:35 PM 66.2 °F - 35.6 °F 32% 30.10 in 10.0 mi SW 11.5 mph 17.3 mph N/A   Clear
3:55 PM 66.2 °F - 33.8 °F 30% 30.11 in 10.0 mi West 9.2 mph 17.3 mph N/A   Clear
4:15 PM 66.2 °F - 32.0 °F 28% 30.11 in 10.0 mi WSW 12.7 mph 18.4 mph N/A   Clear
4:35 PM 66.2 °F - 35.6 °F 32% 30.11 in 10.0 mi SW 11.5 mph 19.6 mph N/A   Clear
4:55 PM 66.2 °F - 35.6 °F 32% 30.11 in 10.0 mi SW 9.2 mph 16.1 mph N/A   Clear
5:15 PM 66.2 °F - 37.4 °F 35% 30.11 in 10.0 mi SW 9.2 mph - N/A   Clear
5:35 PM 64.4 °F - 37.4 °F 37% 30.10 in 10.0 mi WSW 6.9 mph 16.1 mph N/A   Clear
5:55 PM 64.4 °F - 37.4 °F 37% 30.10 in 10.0 mi West 4.6 mph - N/A   Clear
6:15 PM 64.4 °F - 37.4 °F 37% 30.09 in 10.0 mi SW 3.5 mph - N/A   Clear
6:35 PM 62.6 °F - 39.2 °F 42% 30.10 in 10.0 mi South 5.8 mph - N/A   Clear
6:55 PM 62.6 °F - 39.2 °F 42% 30.10 in 10.0 mi SW 10.4 mph - N/A   Clear
7:15 PM 60.8 °F - 41.0 °F 48% 30.09 in 10.0 mi SSW 4.6 mph - N/A   Clear
7:35 PM 59.0 °F - 41.0 °F 51% 30.10 in 10.0 mi WSW 4.6 mph - N/A   Clear
7:55 PM 57.2 °F - 41.0 °F 55% 30.10 in 10.0 mi Calm Calm - N/A   Clear
8:15 PM 53.6 °F - 41.0 °F 62% 30.10 in 10.0 mi Calm Calm - N/A   Clear
8:35 PM 50.0 °F - 41.0 °F 71% 30.11 in 10.0 mi NNE 4.6 mph - N/A   Clear
8:55 PM 48.2 °F - 41.0 °F 76% 30.12 in 10.0 mi North 4.6 mph - N/A   Clear
9:15 PM 48.2 °F - 39.2 °F 71% 30.13 in 10.0 mi NE 4.6 mph - N/A   Clear
9:35 PM 46.4 °F 45.2 °F 39.2 °F 76% 30.13 in 10.0 mi ENE 3.5 mph - N/A   Clear
9:55 PM 46.4 °F 45.2 °F 39.2 °F 76% 30.14 in 10.0 mi North 3.5 mph - N/A   Clear
10:15 PM 44.6 °F 43.1 °F 37.4 °F 76% 30.15 in 10.0 mi North 3.5 mph - N/A   Clear
10:35 PM 44.6 °F 42.2 °F 37.4 °F 76% 30.15 in 10.0 mi North 4.6 mph - N/A   Clear
10:55 PM 42.8 °F 41.1 °F 35.6 °F 76% 30.16 in 10.0 mi NE 3.5 mph - N/A   Clear
11:15 PM 42.8 °F - 37.4 °F 81% 30.16 in 10.0 mi Calm Calm - N/A   Clear
11:55 PM 41.0 °F - 37.4 °F 87% 30.17 in 10.0 mi Calm Calm - N/A   Clear